User: anonymous   Login
Location: Koussan�
(15.2012°N, 12.5548°W)
Time: 09:41:40
(UTC+00:00)
Language:

Cosmos 292 Rocket - Orbit

View from above orbital plane
View from above orbital plane
View from above satellite
View from above satellite

Ground track
Ground track

The orbit data is extracted from the following two-line orbital elements,

1  4071U 69070B   21019.05129713  .00000204  00000-0  45721-4 0  9994
2  4071  74.0492 128.7658 0013548 134.9921 225.2347 14.62882825729679
Epoch (UTC): 19 January 2021 01:13:52
Eccentricity: 0.0013548
inclination: 74.0492°
perigee height: 674 km
apogee height: 693 km
right ascension of ascending node: 128.7658°
argument of perigee: 134.9921°
revolutions per day: 14.62882825
mean anomaly at epoch: 225.2347°
orbit number at epoch: 72967

The dashed part of the orbit path shows where the satellite is in the earth's shadow,  

DLR